Location: Bottenau
(48.5138°N, 8.0462°E)
Time: 05:32:53
(UTC+00:00)

Cosmos 407 Rocket - Pass Details

Date: 18 April 2021
Orbit: 743 x 787 km, 74.0° (Epoch: 09 May)

Event Time Altitude Azimuth Distance (km) Brightness Sun altitude
Exits shadow 20:53:36 19° 205° (SSW) 1,719 5.1 -21.4°
Maximum altitude 20:57:18 84° 293° (WNW) 760 3.4 -21.8°
Drops below altitude 10° 21:02:30 10° 22° (NNE) 2,291 6.3 -22.3°
Sets 21:04:54 0° 23° (NNE) 3,227 7.1 -22.6°
